星链-5823 (STARLINK-5823 )

导读 | 星芒AI

STARLINK-5823 是 SpaceX Starlink 卫星互联网项目中的一颗低轨卫星,属于第58批发射的星链卫星群。该卫星运行在约550公里高度的近地轨道,旨在为全球用户提供高速、低延迟的宽带互联网服务。作为星链计划的一部分,STARLINK-5823 与其他数千颗卫星协同工作,提升网络覆盖范围和连接质量,尤其服务于偏远和网络基础设施薄弱的地区。其部署有助于推动全球数字化进程,并支持多种应用场景,如远程教育、医疗和应急通信。

基本信息
目录编号:
55786
目录名称:
STARLINK-5823
国际标识:
2023-028AX
轨道中心:
EARTH
卫星名称:
星链-5823
卫星全名:
星链-5823 (STARLINK-5823 )
卫星状态:
在轨 (已飞行977 天)
发射日期:
2023-03-03 UTC
国别 :
美国 (US)
星等 :
--
轨道信息
数据来源 国际轨道数据
星历时间: 2025-11-04T07:26:34+0800
12小时前
查看轨道信息
半长轴: 6950.252km
偏心率: 0.0002936
轨道倾角: 69.998°
近地点辐角 273.228°
升交点赤经 161.502°
平近点角 86.854°
近地点: 570.076km
远地点: 574.158km
周期: 96.108分钟
每日圈数: 14.983112
详细信息
固有亮度:
5
最大亮度:
2.5
卫星平台:
Starlink v1.5
覆盖范围:
全球
运营商:
太空探索技术公司
运营商所在国:
美国
制造商(研发单位):
太空探索技术公司
制造商所在国:
美国
使用方式:
暂无
卫星简介
星链(Starlink)计划是由太空探索技术公司(SpaceX)提出的一个巨型低轨卫星互联网星座项目,计划在2019年至2024年间在太空搭建由约1.2万颗卫星组成的“星链”网络,其中1584颗将部署在地球上空550千米处的近地轨道,并从2020年开始工作。该卫星仍在工作。
2D轨道图
3D轨道图
轨道高度分析图
轨道倾角分析图
轨道综合分析图
查看轨道综合分析图